Regional Weather Roundup
Issued by NWS

Home | Current Version | Previous Version | Graphics & Text | Print | Product List | Glossary On
Versions: 1 2 3 4 5 6 7 8 9 10 11 12 13 14 15 16 17 18 19 20 21 22 23 24 25 26 27 28 29 30 31 32 33 34 35 36 37 38 39 40 41 42 43 44 45 46 47 48 49 50
952
ASUS43 KMKX 251221
RWRWI

WISCONSIN REGIONAL WEATHER ROUNDUP
NATIONAL WEATHER SERVICE MILWAUKEE/SULLIVAN WI
700 AM CDT MON SEP 25 2017

NOTE: "FAIR" INDICATES FEW OR NO CLOUDS BELOW 12,000 FEET WITH NO
SIGNIFICANT WEATHER AND/OR OBSTRUCTIONS TO VISIBILITY.

WIZ001-002-006>008-014>016-023>028-251300-
NORTHWEST WISCONSIN

CITY           SKY/WX    TMP DP  RH WIND       PRES   REMARKS
SUPERIOR ARPT  CLOUDY    58  55  92 W5        29.98R
6HR MIN TEMP:  58; 6HR MAX TEMP:  66;

ASHLAND        CLOUDY    66  63  90 W8        29.96R
6HR MIN TEMP:  66; 6HR MAX TEMP:  70; 6HR PCP: TRACE;

HAYWARD        LGT RAIN  66  65  96 SW3       29.97S
6HR MIN TEMP:  66; 6HR MAX TEMP:  74; 6HR PCP:  0.08;

SIREN          RAIN      60  59  96 N3        30.00R
6HR MIN TEMP:  60; 6HR MAX TEMP:  67; 6HR PCP:  0.17;

CUMBERLAND     RAIN      63  63 100 NW3       29.98R
RICE LAKE      LGT RAIN  66  65  97 CALM      29.99R
6HR MIN TEMP:  66; 6HR MAX TEMP:  71; 6HR PCP:  0.06;

CHETEK         CLOUDY    67  66  96 CALM      29.97R
6HR MIN TEMP:  67; 6HR MAX TEMP:  72;

LADYSMITH      PTCLDY    64  62  94 CALM      29.99R
6HR MIN TEMP:  63; 6HR MAX TEMP:  71;

EAU CLAIRE     MOCLDY    63  62  97 CALM      29.95R FOG
6HR MIN TEMP:  62; 6HR MAX TEMP:  71;

MENOMONIE      CLOUDY    67  65  96 NW3       29.96R
6HR MIN TEMP:  67; 6HR MAX TEMP:  73;

NEW RICHMOND   RAIN      62  62  98 N6        29.98R
6HR MIN TEMP:  62; 6HR MAX TEMP:  69; 6HR PCP:  0.43;

OSCEOLA        CLOUDY    60  60 100 N6        30.00F
6HR MIN TEMP:  60; 6HR MAX TEMP:  69; 6HR PCP:  0.28;

$$

WIZ003>005-009-010-017-018-251300-
NORTH CENTRAL WISCONSIN

CITY           SKY/WX    TMP DP  RH WIND       PRES   REMARKS
MANITOWISH WTR NOT AVBL
ARBOR VITAE    CLEAR     62  60  93 CALM      29.98R
6HR MIN TEMP:  62; 6HR MAX TEMP:  72;

WOODRUFF       CLEAR     62  60  93 CALM      29.98R
6HR MIN TEMP:  62; 6HR MAX TEMP:  72;

RHINELANDER    CLEAR     63  61  93 CALM      30.00R
6HR MIN TEMP:  62; 6HR MAX TEMP:  70;

EAGLE RIVER    CLEAR     60  60 100 CALM      29.98S
6HR MIN TEMP:  57; 6HR MAX TEMP:  66;

LAND O LAKES   CLEAR     60  59  96 CALM      30.00R
6HR MIN TEMP:  59; 6HR MAX TEMP:  69;

PHILLIPS       CLOUDY    62  62 100 CALM      29.98R
6HR MIN TEMP:  60; 6HR MAX TEMP:  71;

TOMAHAWK       CLEAR     57  56  95 CALM      29.99S FOG
6HR MIN TEMP:  55; 6HR MAX TEMP:  64;

MEDFORD        CLEAR     57  56  97 CALM      29.98S
6HR MIN TEMP:  56; 6HR MAX TEMP:  65;

MERRILL        CLEAR     56  56 100 CALM      29.99R
6HR MIN TEMP:  55; 6HR MAX TEMP:  68;

$$

WIZ029-030-035-036-043>047-251300-
CENTRAL WISCONSIN

CITY           SKY/WX    TMP DP  RH WIND       PRES   REMARKS
WAUSAU         CLEAR     62  60  93 E6        29.97R
6HR MIN TEMP:  61; 6HR MAX TEMP:  68;

MOSINEE        PTCLDY    61  59  94 CALM      30.00R
MARSHFIELD     CLEAR     61  57  87 CALM      29.97S
6HR MIN TEMP:  61; 6HR MAX TEMP:  67;

STEVENS POINT  PTCLDY    59  59 100 CALM      29.99S
6HR MIN TEMP:  59; 6HR MAX TEMP:  65;

WAUPACA        CLEAR     64  64  98 CALM      29.99R FOG
6HR MIN TEMP:  63; 6HR MAX TEMP:  67;

WAUTOMA        CLEAR     58  57  97 CALM      29.99S
6HR MIN TEMP:  58; 6HR MAX TEMP:  62;

WISC RAPIDS    PTCLDY    63  59  87 CALM      29.99R
6HR MIN TEMP:  62; 6HR MAX TEMP:  68;

CAMP DOUGLAS   PTCLDY    59  59 100 CALM      29.97R
$$

WIZ011>013-019>022-031-037>040-048>050-251300-
NORTHEAST WISCONSIN

CITY           SKY/WX    TMP DP  RH WIND       PRES   REMARKS
ANTIGO         MOCLDY    60  59  96 SE5       30.01R
6HR MIN TEMP:  60; 6HR MAX TEMP:  64;

SHAWANO        CLEAR     66  61  83 CALM      29.98R
6HR MIN TEMP:  66; 6HR MAX TEMP:  70;

OCONTO         CLEAR     60  58  95 CALM      29.98R
6HR MIN TEMP:  60; 6HR MAX TEMP:  71;

STURGEON BAY   MOCLDY    68  61  78 S8        30.00R
6HR MIN TEMP:  67; 6HR MAX TEMP:  71;

GREEN BAY      CLEAR     66  62  87 S3        29.99R
6HR MIN TEMP:  65; 6HR MAX TEMP:  70;

MANITOWOC      MOCLDY    62  61  96 CALM      30.01R FOG
6HR MIN TEMP:  61; 6HR MAX TEMP:  67;

APPLETON       MOCLDY    66  57  72 SE3       29.98R
CLINTONVILLE   CLEAR     61  59  94 CALM      29.98S
OSHKOSH        PTCLDY    68  61  78 S6        29.99R
6HR MIN TEMP:  64; 6HR MAX TEMP:  68;

$$

WIZ032>034-041-042-053>061-251300-
SOUTHWEST WISCONSIN

CITY           SKY/WX    TMP DP  RH WIND       PRES   REMARKS
LA CROSSE      CLEAR     67  64  90 SE6       29.94S
6HR MIN TEMP:  67; 6HR MAX TEMP:  76;

SPARTA         PTCLDY    57  57  99 CALM      29.97R
6HR MIN TEMP:  57; 6HR MAX TEMP:  66;

VIROQUA        CLEAR     64  62  93 CALM      29.98R
6HR MIN TEMP:  63; 6HR MAX TEMP:  71;

BOSCOBEL       FOG       60  58  92 CALM      29.97R VSB 1/4
6HR MIN TEMP:  60; 6HR MAX TEMP:  64;

PRAIRIE DU CHI CLEAR     64  61  91 CALM      29.96R
6HR MIN TEMP:  64; 6HR MAX TEMP:  70;

PLATTEVILLE    CLEAR     64  62  91 SE7       30.00R
6HR MIN TEMP:  64; 6HR MAX TEMP:  71;

$$

WIZ056-057-062-063-064-067-068-251300-
SOUTH CENTRAL WISCONSIN

CITY           SKY/WX    TMP DP  RH WIND       PRES   REMARKS
REEDSBURG      CLEAR     60  60 100 CALM      29.98R
6HR MIN TEMP:  60; 6HR MAX TEMP:  68;

BARABOO/DELLS  CLEAR     64  58  80 S6        29.98R
6HR MIN TEMP:  64; 6HR MAX TEMP:  70;

LONE ROCK      CLEAR     60  59  96 CALM      29.98R FOG
6HR MIN TEMP:  58; 6HR MAX TEMP:  64;

MINERAL POINT  CLEAR     64  63  94 SE6       30.00R
MADISON        PTCLDY    64  61  90 S3        29.99R
6HR MIN TEMP:  62; 6HR MAX TEMP:  68;

MIDDLETON      CLEAR     62  60  94 NW3       30.00R
6HR MIN TEMP:  61; 6HR MAX TEMP:  65;

WATERTOWN      MOCLDY    62  62  99 SE3       30.00S
6HR MIN TEMP:  61; 6HR MAX TEMP:  67;

MONROE         CLEAR     64  57  77 S9        30.00R
JANESVILLE     PTCLDY    64  59  82 CALM      29.99R
$$

WIZ051-052-058>065-066-070>072-251300-
SOUTHEAST WISCONSIN

CITY           SKY/WX    TMP DP  RH WIND       PRES   REMARKS
MILWAUKEE      PTCLDY    70  61  73 SW7       30.00R
6HR MIN TEMP:  67; 6HR MAX TEMP:  73;

WAUKESHA       PTCLDY    66  59  77 CALM      30.02R
MILWAUKEE/TIMM CLEAR     63  57  82 CALM      30.02R
RACINE         CLEAR     69  61  75 S3        30.02R
6HR MIN TEMP:  67; 6HR MAX TEMP:  72;

BURLINGTON     CLEAR     57  57 100 CALM      30.01S FOG
6HR MIN TEMP:  55; 6HR MAX TEMP:  61;

KENOSHA        PTCLDY    64  60  87 W3        30.01R
6HR MIN TEMP:  61; 6HR MAX TEMP:  71;

FOND DU LAC    PTCLDY    67  59  75 S6        29.99S
6HR MIN TEMP:  64; 6HR MAX TEMP:  68;

SHEBOYGAN      CLEAR     61  61 100 CALM      30.00S
6HR MIN TEMP:  59; 6HR MAX TEMP:  63; 6HR PCP: TRACE;

WEST BEND        N/A     59  59 100 CALM      30.01S
JUNEAU         PTCLDY    65  59  83 CALM      30.02R
6HR MIN TEMP:  64; 6HR MAX TEMP:  68;

$$

LSZ147-162-251300-
LAKE SUPERIOR

STATION/POSITION TIME  TEMP    WIND        PRES    WAVE
                       AIR SEA DIR/SP/G            HT/PER
                 (UTC) (F)     (DEG/KT/KT) (MB)    (FT/S)
W MID LAKE BUOY  1150   60 56  240/ 10/ 12 1012.3R   1
DEVILS ISLAND    1200   63     250/ 12/ 14 1013.6R
PORT WING        1140   64     260/  7/ 13 1014.6R
SAXON HARBOR     1130   69     180/  3/  5 1013.2R
$$

LMZ867-665-643>646-251300-
LAKE MICHIGAN

STATION/POSITION TIME  TEMP    WIND        PRES    WAVE
                       AIR SEA DIR/SP/G            HT/PER
                 (UTC) (F)     (DEG/KT/KT) (M



USA.gov is the U.S. government's official web portal to all federal, state and local government web resources and services.